Time,TemperatureF,DewpointF,PressureIn,WindDirection,WindDirectionDegrees,WindSpeedMPH,WindSpeedGustMPH,Humidity,HourlyPrecipIn,Conditions,Clouds,dailyrainin,SoftwareType,DateUTC
2013-08-08 00:01:00,59.2,53.1,30.01,ESE,112,0.0,0.0,80,0.00,,,0.00,WUHU21636XXSP,2013-08-08 05:01:00,
2013-08-08 00:06:00,59.1,53.0,30.01,ESE,112,0.0,0.0,80,0.00,,,0.00,WUHU21636XXSP,2013-08-08 05:06:00,
2013-08-08 00:11:00,58.7,52.6,30.01,ESE,112,0.0,0.0,80,0.00,,,0.00,WUHU21636XXSP,2013-08-08 05:11:00,
2013-08-08 00:16:00,58.7,52.6,30.01,ESE,112,0.0,0.0,80,0.00,,,0.00,WUHU21636XXSP,2013-08-08 05:16:00,
2013-08-08 00:21:00,58.7,52.6,30.01,ESE,112,0.0,0.0,80,0.00,,,0.00,WUHU21636XXSP,2013-08-08 05:21:00,
2013-08-08 00:26:00,58.7,52.6,30.01,ESE,112,0.0,0.0,80,0.00,,,0.00,WUHU21636XXSP,2013-08-08 05:26:00,
2013-08-08 00:31:00,58.5,52.4,30.01,ESE,112,0.0,0.0,80,0.00,,,0.00,WUHU21636XXSP,2013-08-08 05:31:00,
2013-08-08 00:36:00,58.3,52.2,30.02,ESE,112,0.0,0.0,80,0.00,,,0.00,WUHU21636XXSP,2013-08-08 05:36:00,
2013-08-08 00:41:00,58.3,52.2,30.02,ESE,112,0.0,0.0,80,0.00,,,0.00,WUHU21636XXSP,2013-08-08 05:41:00,
2013-08-08 00:46:00,58.2,52.1,30.02,ESE,112,0.0,0.0,80,0.00,,,0.00,WUHU21636XXSP,2013-08-08 05:46:00,
2013-08-08 00:51:00,58.0,51.9,30.02,ESE,112,0.0,0.0,80,0.00,,,0.00,WUHU21636XXSP,2013-08-08 05:51:00,
2013-08-08 00:56:00,58.0,52.2,30.02,ESE,112,0.0,0.0,81,0.00,,,0.00,WUHU21636XXSP,2013-08-08 05:56:00,
2013-08-08 01:01:00,58.0,52.2,30.01,ESE,112,0.0,0.0,81,0.00,,,0.00,WUHU21636XXSP,2013-08-08 06:01:00,
2013-08-08 01:06:00,57.8,52.0,30.01,ESE,112,0.0,0.0,81,0.00,,,0.00,WUHU21636XXSP,2013-08-08 06:06:00,
2013-08-08 01:11:00,57.5,51.8,30.02,ESE,112,0.0,0.0,81,0.00,,,0.00,WUHU21636XXSP,2013-08-08 06:11:00,
2013-08-08 01:16:00,57.3,51.6,30.02,ESE,112,0.0,0.0,81,0.00,,,0.00,WUHU21636XXSP,2013-08-08 06:16:00,
2013-08-08 01:21:00,57.3,51.6,30.02,ESE,112,0.0,0.0,81,0.00,,,0.00,WUHU21636XXSP,2013-08-08 06:21:00,
2013-08-08 01:26:00,57.3,51.6,30.02,ESE,112,0.0,0.0,81,0.00,,,0.00,WUHU21636XXSP,2013-08-08 06:26:00,
2013-08-08 01:31:00,57.2,51.5,30.02,ESE,112,0.0,0.0,81,0.00,,,0.00,WUHU21636XXSP,2013-08-08 06:31:00,
2013-08-08 01:36:00,57.0,51.3,30.02,ESE,112,0.0,0.0,81,0.00,,,0.00,WUHU21636XXSP,2013-08-08 06:36:00,
2013-08-08 01:41:00,56.8,51.1,30.02,ESE,112,0.0,0.0,81,0.00,,,0.00,WUHU21636XXSP,2013-08-08 06:41:00,
2013-08-08 01:46:00,56.6,50.9,30.02,ESE,112,0.0,0.0,81,0.00,,,0.00,WUHU21636XXSP,2013-08-08 06:46:00,
2013-08-08 01:51:00,56.8,51.1,30.02,ESE,112,0.0,0.0,81,0.00,,,0.00,WUHU21636XXSP,2013-08-08 06:51:00,
2013-08-08 01:56:00,56.6,50.9,30.03,ESE,112,0.0,0.0,81,0.00,,,0.00,WUHU21636XXSP,2013-08-08 06:56:00,
2013-08-08 02:01:00,56.6,50.9,30.02,ESE,112,0.0,0.0,81,0.00,,,0.00,WUHU21636XXSP,2013-08-08 07:01:00,
2013-08-08 02:06:00,56.4,50.7,30.02,ESE,112,0.0,0.0,81,0.00,,,0.00,WUHU21636XXSP,2013-08-08 07:06:00,
2013-08-08 02:11:00,56.4,50.7,30.03,ESE,112,0.0,0.0,81,0.00,,,0.00,WUHU21636XXSP,2013-08-08 07:11:00,
2013-08-08 02:16:00,56.4,50.7,30.02,ESE,112,0.0,0.0,81,0.00,,,0.00,WUHU21636XXSP,2013-08-08 07:16:00,
2013-08-08 02:21:00,56.3,50.6,30.03,ESE,112,0.0,0.0,81,0.00,,,0.00,WUHU21636XXSP,2013-08-08 07:21:00,
2013-08-08 02:26:00,56.1,50.4,30.04,ESE,112,0.0,0.0,81,0.00,,,0.00,WUHU21636XXSP,2013-08-08 07:26:00,
2013-08-08 02:31:00,56.3,50.6,30.04,ESE,112,0.0,0.0,81,0.00,,,0.00,WUHU21636XXSP,2013-08-08 07:31:00,
2013-08-08 02:36:00,56.1,50.4,30.03,ESE,112,0.0,0.0,81,0.00,,,0.00,WUHU21636XXSP,2013-08-08 07:36:00,
2013-08-08 02:41:00,55.9,50.2,30.04,ESE,112,0.0,0.0,81,0.00,,,0.00,WUHU21636XXSP,2013-08-08 07:41:00,
2013-08-08 02:46:00,55.9,50.2,30.05,ESE,112,0.0,0.0,81,0.00,,,0.00,WUHU21636XXSP,2013-08-08 07:46:00,
2013-08-08 02:51:00,55.7,49.9,30.05,ESE,112,0.0,0.0,81,0.00,,,0.00,WUHU21636XXSP,2013-08-08 07:51:00,
2013-08-08 02:56:00,55.7,50.3,30.05,ESE,112,0.0,0.0,82,0.00,,,0.00,WUHU21636XXSP,2013-08-08 07:56:00,
2013-08-08 03:01:00,55.7,49.9,30.05,ESE,112,0.0,0.0,81,0.00,,,0.00,WUHU21636XXSP,2013-08-08 08:01:00,
2013-08-08 03:06:00,55.4,50.1,30.05,ESE,112,0.0,0.0,82,0.00,,,0.00,WUHU21636XXSP,2013-08-08 08:06:00,
2013-08-08 03:11:00,55.4,50.1,30.05,ESE,112,0.0,0.0,82,0.00,,,0.00,WUHU21636XXSP,2013-08-08 08:11:00,
2013-08-08 03:16:00,55.4,50.1,30.04,ESE,112,0.0,0.0,82,0.00,,,0.00,WUHU21636XXSP,2013-08-08 08:16:00,
2013-08-08 03:21:00,55.3,50.0,30.04,ESE,112,0.0,0.0,82,0.00,,,0.00,WUHU21636XXSP,2013-08-08 08:21:00,
2013-08-08 03:26:00,55.3,50.0,30.04,ESE,112,0.0,0.0,82,0.00,,,0.00,WUHU21636XXSP,2013-08-08 08:26:00,
2013-08-08 03:31:00,55.1,49.8,30.04,ESE,112,0.0,0.0,82,0.00,,,0.00,WUHU21636XXSP,2013-08-08 08:31:00,
2013-08-08 03:36:00,55.1,49.8,30.04,ESE,112,0.0,0.0,82,0.00,,,0.00,WUHU21636XXSP,2013-08-08 08:36:00,
2013-08-08 03:41:00,55.1,49.8,30.03,ESE,112,0.0,0.0,82,0.00,,,0.00,WUHU21636XXSP,2013-08-08 08:41:00,
2013-08-08 03:46:00,54.7,49.3,30.03,ESE,112,0.0,0.0,82,0.00,,,0.00,WUHU21636XXSP,2013-08-08 08:46:00,
2013-08-08 03:51:00,54.7,49.3,30.03,ESE,112,0.0,0.0,82,0.00,,,0.00,WUHU21636XXSP,2013-08-08 08:51:00,
2013-08-08 03:56:00,54.7,49.3,30.03,ESE,112,0.0,0.0,82,0.00,,,0.00,WUHU21636XXSP,2013-08-08 08:56:00,
2013-08-08 04:01:00,54.7,49.3,30.03,ESE,112,0.0,0.0,82,0.00,,,0.00,WUHU21636XXSP,2013-08-08 09:01:00,
2013-08-08 04:06:00,54.7,49.3,30.03,ESE,112,0.0,0.0,82,0.00,,,0.00,WUHU21636XXSP,2013-08-08 09:06:00,
2013-08-08 04:11:00,54.5,49.1,30.02,ESE,112,0.0,0.0,82,0.00,,,0.00,WUHU21636XXSP,2013-08-08 09:11:00,
2013-08-08 04:16:00,54.5,49.1,30.02,ESE,112,0.0,0.0,82,0.00,,,0.00,WUHU21636XXSP,2013-08-08 09:16:00,
2013-08-08 04:21:00,54.5,49.1,30.02,ESE,112,0.0,0.0,82,0.00,,,0.00,WUHU21636XXSP,2013-08-08 09:21:00,
2013-08-08 04:26:00,54.5,49.1,30.02,ESE,112,0.0,0.0,82,0.00,,,0.00,WUHU21636XXSP,2013-08-08 09:26:00,
2013-08-08 04:31:00,54.5,49.1,30.01,ESE,112,0.0,0.0,82,0.00,,,0.00,WUHU21636XXSP,2013-08-08 09:31:00,
2013-08-08 04:36:00,54.2,48.8,30.01,ESE,112,0.0,0.0,82,0.00,,,0.00,WUHU21636XXSP,2013-08-08 09:36:00,
2013-08-08 04:41:00,54.2,48.8,30.01,ESE,112,0.0,0.0,82,0.00,,,0.00,WUHU21636XXSP,2013-08-08 09:41:00,
2013-08-08 04:46:00,54.2,48.8,30.02,ESE,112,0.0,0.0,82,0.00,,,0.00,WUHU21636XXSP,2013-08-08 09:46:00,
2013-08-08 04:51:00,54.0,48.6,30.02,ESE,112,0.0,0.0,82,0.00,,,0.00,WUHU21636XXSP,2013-08-08 09:51:00,
2013-08-08 04:56:00,53.8,48.4,30.02,ESE,112,0.0,0.0,82,0.00,,,0.00,WUHU21636XXSP,2013-08-08 09:56:00,
2013-08-08 05:01:00,53.8,48.4,30.02,ESE,112,0.0,0.0,82,0.00,,,0.00,WUHU21636XXSP,2013-08-08 10:01:00,
2013-08-08 05:06:00,53.8,48.4,30.02,ESE,112,0.0,0.0,82,0.00,,,0.00,WUHU21636XXSP,2013-08-08 10:06:00,
2013-08-08 05:11:00,53.5,48.2,30.02,ESE,112,0.0,0.0,82,0.00,,,0.00,WUHU21636XXSP,2013-08-08 10:11:00,
2013-08-08 05:16:00,53.5,48.2,30.02,ESE,112,0.0,0.0,82,0.00,,,0.00,WUHU21636XXSP,2013-08-08 10:16:00,
2013-08-08 05:21:00,53.5,48.2,30.02,ESE,112,0.0,0.0,82,0.00,,,0.00,WUHU21636XXSP,2013-08-08 10:21:00,
2013-08-08 05:26:00,53.5,48.2,30.02,ESE,112,0.0,0.0,82,0.00,,,0.00,WUHU21636XXSP,2013-08-08 10:26:00,
2013-08-08 05:31:00,53.4,48.1,30.01,ESE,112,0.0,0.0,82,0.00,,,0.00,WUHU21636XXSP,2013-08-08 10:31:00,
2013-08-08 05:36:00,53.4,48.1,30.01,ESE,112,0.0,0.0,82,0.00,,,0.00,WUHU21636XXSP,2013-08-08 10:36:00,
2013-08-08 05:41:00,53.2,47.9,30.01,ESE,112,0.0,0.0,82,0.00,,,0.00,WUHU21636XXSP,2013-08-08 10:41:00,
2013-08-08 05:46:00,53.2,48.2,30.01,ESE,112,0.0,0.0,83,0.00,,,0.00,WUHU21636XXSP,2013-08-08 10:46:00,
2013-08-08 05:51:00,53.2,48.2,30.01,ESE,112,0.0,0.0,83,0.00,,,0.00,WUHU21636XXSP,2013-08-08 10:51:00,
2013-08-08 05:56:00,53.2,48.2,30.01,ESE,112,0.0,0.0,83,0.00,,,0.00,WUHU21636XXSP,2013-08-08 10:56:00,
2013-08-08 06:01:00,53.2,48.2,30.01,ESE,112,0.0,0.0,83,0.00,,,0.00,WUHU21636XXSP,2013-08-08 11:01:00,
2013-08-08 06:06:00,53.2,48.2,30.01,ESE,112,0.0,0.0,83,0.00,,,0.00,WUHU21636XXSP,2013-08-08 11:06:00,
2013-08-08 06:12:00,53.2,48.2,30.01,ESE,112,0.0,0.0,83,0.00,,,0.00,WUHU21636XXSP,2013-08-08 11:12:00,
2013-08-08 06:17:00,53.2,48.2,30.01,ESE,112,0.0,0.0,83,0.00,,,0.00,WUHU21636XXSP,2013-08-08 11:17:00,
2013-08-08 06:22:00,53.0,48.0,30.01,ESE,112,0.0,0.0,83,0.00,,,0.00,WUHU21636XXSP,2013-08-08 11:22:00,
2013-08-08 06:27:00,53.0,48.0,30.01,ESE,112,0.0,0.0,83,0.00,,,0.00,WUHU21636XXSP,2013-08-08 11:27:00,
2013-08-08 06:32:00,53.0,48.0,30.01,ESE,112,0.0,0.0,83,0.00,,,0.00,WUHU21636XXSP,2013-08-08 11:32:00,
2013-08-08 06:37:00,52.8,47.8,30.01,ESE,112,0.0,0.0,83,0.00,,,0.00,WUHU21636XXSP,2013-08-08 11:37:00,
2013-08-08 06:42:00,52.8,47.8,30.01,ESE,112,0.0,0.0,83,0.00,,,0.00,WUHU21636XXSP,2013-08-08 11:42:00,
2013-08-08 06:47:00,52.8,47.8,30.02,ESE,112,0.0,0.0,83,0.00,,,0.00,WUHU21636XXSP,2013-08-08 11:47:00,
2013-08-08 06:52:00,52.8,47.8,30.02,ESE,112,0.0,0.0,83,0.00,,,0.00,WUHU21636XXSP,2013-08-08 11:52:00,
2013-08-08 06:56:00,52.6,47.6,30.02,ESE,112,0.0,0.0,83,0.00,,,0.00,WUHU21636XXSP,2013-08-08 11:56:00,
2013-08-08 07:01:00,52.6,47.6,30.02,ESE,112,0.0,0.0,83,0.00,,,0.00,WUHU21636XXSP,2013-08-08 12:01:00,
2013-08-08 07:06:00,52.8,47.8,30.03,ESE,112,0.0,0.0,83,0.00,,,0.00,WUHU21636XXSP,2013-08-08 12:06:00,
2013-08-08 07:11:00,52.8,47.8,30.03,ESE,112,0.0,0.0,83,0.00,,,0.00,WUHU21636XXSP,2013-08-08 12:11:00,
2013-08-08 07:16:00,53.0,48.0,30.03,ESE,112,0.0,0.0,83,0.00,,,0.00,WUHU21636XXSP,2013-08-08 12:16:00,
2013-08-08 07:21:00,53.2,48.2,30.03,ESE,112,0.0,0.0,83,0.00,,,0.00,WUHU21636XXSP,2013-08-08 12:21:00,
2013-08-08 07:26:00,53.2,48.2,30.03,ESE,112,0.0,0.0,83,0.00,,,0.00,WUHU21636XXSP,2013-08-08 12:26:00,
2013-08-08 07:31:00,53.4,48.4,30.04,ESE,112,0.0,0.0,83,0.00,,,0.00,WUHU21636XXSP,2013-08-08 12:31:00,
2013-08-08 07:36:00,53.5,48.5,30.04,ESE,112,0.0,0.0,83,0.00,,,0.00,WUHU21636XXSP,2013-08-08 12:36:00,
2013-08-08 07:41:00,53.5,48.5,30.04,ESE,112,0.0,0.0,83,0.00,,,0.00,WUHU21636XXSP,2013-08-08 12:41:00,
2013-08-08 07:46:00,53.8,48.7,30.04,ESE,112,0.0,0.0,83,0.00,,,0.00,WUHU21636XXSP,2013-08-08 12:46:00,
2013-08-08 07:51:00,54.2,49.5,30.04,ESE,112,0.0,0.0,84,0.00,,,0.00,WUHU21636XXSP,2013-08-08 12:51:00,
2013-08-08 07:56:00,54.5,49.8,30.04,ESE,112,0.0,0.0,84,0.00,,,0.00,WUHU21636XXSP,2013-08-08 12:56:00,
2013-08-08 08:01:00,54.7,50.0,30.04,ESE,112,0.0,0.0,84,0.00,,,0.00,WUHU21636XXSP,2013-08-08 13:01:00,
2013-08-08 08:06:00,55.1,50.4,30.04,ESE,112,0.0,0.0,84,0.00,,,0.00,WUHU21636XXSP,2013-08-08 13:06:00,
2013-08-08 08:11:00,55.3,50.6,30.04,ESE,112,0.0,0.0,84,0.00,,,0.00,WUHU21636XXSP,2013-08-08 13:11:00,
2013-08-08 08:16:00,55.7,50.9,30.04,ESE,112,0.0,0.0,84,0.00,,,0.00,WUHU21636XXSP,2013-08-08 13:16:00,
2013-08-08 08:21:00,56.1,51.3,30.04,ESE,112,0.0,0.0,84,0.00,,,0.00,WUHU21636XXSP,2013-08-08 13:21:00,
2013-08-08 08:26:00,56.3,51.5,30.04,ESE,112,0.0,0.0,84,0.00,,,0.00,WUHU21636XXSP,2013-08-08 13:26:00,
2013-08-08 08:31:00,56.6,51.8,30.04,ESE,112,0.0,0.0,84,0.00,,,0.00,WUHU21636XXSP,2013-08-08 13:31:00,
2013-08-08 08:36:00,57.0,52.2,30.04,ESE,112,0.0,0.0,84,0.00,,,0.00,WUHU21636XXSP,2013-08-08 13:36:00,
2013-08-08 08:41:00,57.3,52.5,30.04,ESE,112,0.0,0.0,84,0.00,,,0.00,WUHU21636XXSP,2013-08-08 13:41:00,
2013-08-08 08:46:00,58.0,53.2,30.04,ESE,112,0.0,0.0,84,0.00,,,0.00,WUHU21636XXSP,2013-08-08 13:46:00,
2013-08-08 08:51:00,58.3,53.5,30.04,ESE,112,0.0,0.0,84,0.00,,,0.00,WUHU21636XXSP,2013-08-08 13:51:00,
2013-08-08 08:56:00,58.7,53.9,30.03,ESE,112,0.0,0.0,84,0.00,,,0.00,WUHU21636XXSP,2013-08-08 13:56:00,
2013-08-08 09:01:00,58.7,53.9,30.03,ESE,112,0.0,0.0,84,0.00,,,0.00,WUHU21636XXSP,2013-08-08 14:01:00,
2013-08-08 09:06:00,59.2,54.4,30.03,ESE,112,0.0,0.0,84,0.00,,,0.00,WUHU21636XXSP,2013-08-08 14:06:00,
2013-08-08 09:11:00,59.6,54.5,30.03,ENE,67,0.0,0.0,83,0.00,,,0.00,WUHU21636XXSP,2013-08-08 14:11:00,
2013-08-08 09:16:00,60.4,54.6,30.03,SE,135,0.0,0.0,81,0.00,,,0.00,WUHU21636XXSP,2013-08-08 14:16:00,
2013-08-08 09:21:00,61.1,54.3,30.03,SE,135,2.2,2.2,78,0.00,,,0.00,WUHU21636XXSP,2013-08-08 14:21:00,
2013-08-08 09:26:00,61.7,54.9,30.03,SE,135,0.0,2.2,78,0.00,,,0.00,WUHU21636XXSP,2013-08-08 14:26:00,
2013-08-08 09:31:00,62.1,55.2,30.03,SE,135,0.0,0.0,78,0.00,,,0.00,WUHU21636XXSP,2013-08-08 14:31:00,
2013-08-08 09:36:00,62.3,55.4,30.04,SSE,157,0.0,0.0,78,0.00,,,0.00,WUHU21636XXSP,2013-08-08 14:36:00,
2013-08-08 09:41:00,63.0,55.8,30.03,SSW,202,0.0,0.0,77,0.00,,,0.00,WUHU21636XXSP,2013-08-08 14:41:00,
2013-08-08 09:46:00,63.2,55.3,30.04,SSW,202,0.0,0.0,75,0.00,,,0.00,WUHU21636XXSP,2013-08-08 14:46:00,
2013-08-08 09:51:00,63.8,55.1,30.03,ESE,112,0.0,0.0,73,0.00,,,0.00,WUHU21636XXSP,2013-08-08 14:51:00,
2013-08-08 09:56:00,64.8,55.3,30.03,SSE,157,0.0,4.8,71,0.00,,,0.00,WUHU21636XXSP,2013-08-08 14:56:00,
2013-08-08 10:01:00,64.9,54.6,30.03,ESE,112,1.6,4.8,69,0.00,,,0.00,WUHU21636XXSP,2013-08-08 15:01:00,
2013-08-08 10:06:00,65.5,54.8,30.03,ESE,112,0.8,9.2,68,0.00,,,0.00,WUHU21636XXSP,2013-08-08 15:06:00,
2013-08-08 10:11:00,65.8,54.7,30.03,ESE,112,0.0,9.2,67,0.00,,,0.00,WUHU21636XXSP,2013-08-08 15:11:00,
2013-08-08 10:16:00,66.3,55.1,30.03,ESE,112,0.0,1.6,67,0.00,,,0.00,WUHU21636XXSP,2013-08-08 15:16:00,
2013-08-08 10:21:00,66.7,55.5,30.03,ESE,112,0.0,0.0,67,0.00,,,0.00,WUHU21636XXSP,2013-08-08 15:21:00,
2013-08-08 10:26:00,67.0,55.8,30.03,ENE,67,0.0,4.4,67,0.00,,,0.00,WUHU21636XXSP,2013-08-08 15:26:00,
2013-08-08 10:31:00,67.7,55.7,30.03,East,90,0.0,4.4,65,0.00,,,0.00,WUHU21636XXSP,2013-08-08 15:31:00,
2013-08-08 10:36:00,67.9,56.8,30.02,SSE,157,0.0,0.8,67,0.00,,,0.00,WUHU21636XXSP,2013-08-08 15:36:00,
2013-08-08 10:41:00,68.6,56.1,30.02,SSE,157,0.0,0.8,64,0.00,,,0.00,WUHU21636XXSP,2013-08-08 15:41:00,
2013-08-08 10:46:00,68.9,56.4,30.02,SE,135,0.0,0.0,64,0.00,,,0.00,WUHU21636XXSP,2013-08-08 15:46:00,
2013-08-08 10:51:00,69.3,56.8,30.02,NE,45,0.0,0.0,64,0.00,,,0.00,WUHU21636XXSP,2013-08-08 15:51:00,
2013-08-08 10:56:00,69.6,53.9,30.03,South,180,0.0,0.0,57,0.00,,,0.00,WUHU21636XXSP,2013-08-08 15:56:00,
2013-08-08 11:01:00,70.6,55.7,30.03,SE,135,0.0,0.0,59,0.00,,,0.00,WUHU21636XXSP,2013-08-08 16:01:00,
2013-08-08 11:06:00,71.0,54.6,30.04,SW,225,0.0,0.0,56,0.00,,,0.00,WUHU21636XXSP,2013-08-08 16:06:00,
2013-08-08 11:11:00,71.5,56.6,30.04,ESE,110,5.2,7.0,59,0.00,,,0.00,WUHU21636XXSP,2013-08-08 16:11:00,
2013-08-08 11:16:00,72.1,56.2,30.05,East,90,8.8,8.8,57,0.00,,,0.00,WUHU21636XXSP,2013-08-08 16:16:00,
2013-08-08 11:21:00,72.4,55.5,30.05,SSW,202,0.0,8.8,55,0.00,,,0.00,WUHU21636XXSP,2013-08-08 16:21:00,
2013-08-08 11:26:00,72.9,55.4,30.05,WSW,247,0.0,8.8,54,0.00,,,0.00,WUHU21636XXSP,2013-08-08 16:26:00,
2013-08-08 11:31:00,73.4,57.4,30.05,East,90,4.8,4.8,57,0.00,,,0.00,WUHU21636XXSP,2013-08-08 16:31:00,
2013-08-08 11:36:00,73.8,58.3,30.05,East,90,0.0,8.0,58,0.00,,,0.00,WUHU21636XXSP,2013-08-08 16:36:00,
2013-08-08 11:41:00,74.2,57.7,30.05,WSW,247,0.0,8.0,56,0.00,,,0.00,WUHU21636XXSP,2013-08-08 16:41:00,
2013-08-08 11:46:00,74.3,58.8,30.05,ENE,67,0.0,0.0,58,0.00,,,0.00,WUHU21636XXSP,2013-08-08 16:46:00,
2013-08-08 11:51:00,74.6,58.5,30.05,South,180,0.0,0.0,57,0.00,,,0.00,WUHU21636XXSP,2013-08-08 16:51:00,
2013-08-08 11:56:00,75.0,58.4,30.05,East,90,4.0,4.0,56,0.00,,,0.00,WUHU21636XXSP,2013-08-08 16:56:00,
2013-08-08 12:01:00,75.2,58.6,30.04,West,270,0.0,4.0,56,0.00,,,0.00,WUHU21636XXSP,2013-08-08 17:01:00,
2013-08-08 12:06:00,75.2,57.0,30.04,WSW,247,0.0,0.0,53,0.00,,,0.00,WUHU21636XXSP,2013-08-08 17:06:00,
2013-08-08 12:11:00,75.3,57.1,30.04,West,270,1.6,1.6,53,0.00,,,0.00,WUHU21636XXSP,2013-08-08 17:11:00,
2013-08-08 12:16:00,75.5,58.4,30.03,SW,225,0.0,1.6,55,0.00,,,0.00,WUHU21636XXSP,2013-08-08 17:16:00,
2013-08-08 12:21:00,75.5,57.8,30.04,West,270,0.0,0.0,54,0.00,,,0.00,WUHU21636XXSP,2013-08-08 17:21:00,
2013-08-08 12:26:00,75.7,58.0,30.03,West,270,0.0,0.0,54,0.00,,,0.00,WUHU21636XXSP,2013-08-08 17:26:00,
2013-08-08 12:31:00,76.1,58.4,30.03,West,270,0.0,0.0,54,0.00,,,0.00,WUHU21636XXSP,2013-08-08 17:31:00,
2013-08-08 12:36:00,76.2,58.5,30.03,WNW,292,0.0,0.0,54,0.00,,,0.00,WUHU21636XXSP,2013-08-08 17:36:00,
2013-08-08 12:41:00,76.9,59.1,30.03,SW,225,0.0,0.0,54,0.00,,,0.00,WUHU21636XXSP,2013-08-08 17:41:00,
2013-08-08 12:46:00,77.2,58.3,30.03,SW,225,0.0,0.0,52,0.00,,,0.00,WUHU21636XXSP,2013-08-08 17:46:00,
2013-08-08 12:51:00,77.2,59.9,30.04,WSW,247,0.0,0.0,55,0.00,,,0.00,WUHU21636XXSP,2013-08-08 17:51:00,
2013-08-08 12:56:00,77.2,59.4,30.02,WNW,292,0.0,0.0,54,0.00,,,0.00,WUHU21636XXSP,2013-08-08 17:56:00,
2013-08-08 13:01:00,77.4,60.1,30.02,WNW,292,0.0,0.0,55,0.00,,,0.00,WUHU21636XXSP,2013-08-08 18:01:00,
2013-08-08 13:06:00,77.4,60.1,30.02,WNW,292,0.0,0.0,55,0.00,,,0.00,WUHU21636XXSP,2013-08-08 18:06:00,
2013-08-08 13:11:00,77.4,59.6,30.02,WNW,292,0.0,0.0,54,0.00,,,0.00,WUHU21636XXSP,2013-08-08 18:11:00,
2013-08-08 13:16:00,77.4,60.1,30.02,West,270,0.0,0.0,55,0.00,,,0.00,WUHU21636XXSP,2013-08-08 18:16:00,
2013-08-08 13:21:00,77.2,59.9,30.02,West,270,0.0,0.0,55,0.00,,,0.00,WUHU21636XXSP,2013-08-08 18:21:00,
2013-08-08 13:26:00,76.9,60.2,30.02,West,270,0.0,0.0,56,0.00,,,0.00,WUHU21636XXSP,2013-08-08 18:26:00,
2013-08-08 13:32:00,77.2,59.9,30.02,West,270,0.0,0.0,55,0.00,,,0.00,WUHU21636XXSP,2013-08-08 18:32:00,
2013-08-08 13:37:00,77.4,60.1,30.02,WSW,247,0.0,0.0,55,0.00,,,0.00,WUHU21636XXSP,2013-08-08 18:37:00,
2013-08-08 13:42:00,77.4,60.1,30.02,West,270,0.0,0.0,55,0.00,,,0.00,WUHU21636XXSP,2013-08-08 18:42:00,
2013-08-08 13:47:00,77.8,58.3,30.02,SSE,157,0.0,0.0,51,0.00,,,0.00,WUHU21636XXSP,2013-08-08 18:47:00,
2013-08-08 13:52:00,78.0,60.2,30.02,WSW,247,0.0,0.0,54,0.00,,,0.00,WUHU21636XXSP,2013-08-08 18:52:00,
2013-08-08 13:57:00,78.0,59.1,30.02,East,90,0.0,0.4,52,0.00,,,0.00,WUHU21636XXSP,2013-08-08 18:57:00,
2013-08-08 14:02:00,78.0,59.6,30.01,East,90,0.0,0.4,53,0.00,,,0.00,WUHU21636XXSP,2013-08-08 19:02:00,
2013-08-08 14:07:00,78.0,58.0,30.01,East,90,0.0,0.0,50,0.00,,,0.00,WUHU21636XXSP,2013-08-08 19:07:00,
2013-08-08 14:12:00,77.8,58.3,30.01,East,90,0.0,0.0,51,0.00,,,0.00,WUHU21636XXSP,2013-08-08 19:12:00,
2013-08-08 14:17:00,77.4,58.5,30.01,East,90,0.0,0.0,52,0.00,,,0.00,WUHU21636XXSP,2013-08-08 19:17:00,
2013-08-08 14:22:00,77.8,57.8,30.01,NW,315,0.0,0.0,50,0.00,,,0.00,WUHU21636XXSP,2013-08-08 19:22:00,
2013-08-08 14:27:00,77.8,58.3,30.01,NW,315,0.0,0.0,51,0.00,,,0.00,WUHU21636XXSP,2013-08-08 19:27:00,
2013-08-08 14:32:00,78.1,59.2,30.00,NW,315,0.0,0.0,52,0.00,,,0.00,WUHU21636XXSP,2013-08-08 19:32:00,
2013-08-08 14:37:00,78.3,59.9,30.00,NW,315,0.0,0.0,53,0.00,,,0.00,WUHU21636XXSP,2013-08-08 19:37:00,
2013-08-08 14:42:00,78.3,61.0,30.01,NW,315,0.0,0.0,55,0.00,,,0.00,WUHU21636XXSP,2013-08-08 19:42:00,
2013-08-08 14:47:00,78.1,60.3,30.00,NW,315,0.0,0.0,54,0.00,,,0.00,WUHU21636XXSP,2013-08-08 19:47:00,
2013-08-08 14:52:00,78.0,60.7,30.00,NW,315,0.0,0.0,55,0.00,,,0.00,WUHU21636XXSP,2013-08-08 19:52:00,
2013-08-08 14:57:00,78.1,60.8,30.00,NW,315,0.0,0.0,55,0.00,,,0.00,WUHU21636XXSP,2013-08-08 19:57:00,
2013-08-08 15:02:00,78.3,61.0,30.00,NW,315,0.0,0.0,55,0.00,,,0.00,WUHU21636XXSP,2013-08-08 20:02:00,
2013-08-08 15:07:00,78.3,61.5,30.00,NW,315,0.0,0.0,56,0.00,,,0.00,WUHU21636XXSP,2013-08-08 20:07:00,
2013-08-08 15:12:00,78.0,60.7,29.99,NW,315,0.0,0.0,55,0.00,,,0.00,WUHU21636XXSP,2013-08-08 20:12:00,
2013-08-08 15:17:00,78.0,60.2,29.99,NW,315,0.0,0.0,54,0.00,,,0.00,WUHU21636XXSP,2013-08-08 20:17:00,
2013-08-08 15:22:00,77.8,60.5,29.99,NW,315,0.0,0.0,55,0.00,,,0.00,WUHU21636XXSP,2013-08-08 20:22:00,
2013-08-08 15:27:00,77.8,60.5,29.99,NW,315,0.0,0.0,55,0.00,,,0.00,WUHU21636XXSP,2013-08-08 20:27:00,
2013-08-08 15:32:00,77.4,61.2,29.99,NW,315,0.0,0.0,57,0.00,,,0.00,WUHU21636XXSP,2013-08-08 20:32:00,
2013-08-08 15:37:00,77.4,62.1,29.99,NW,315,0.0,0.0,59,0.00,,,0.00,WUHU21636XXSP,2013-08-08 20:37:00,
2013-08-08 15:42:00,77.4,62.1,29.99,NW,315,0.0,0.0,59,0.00,,,0.00,WUHU21636XXSP,2013-08-08 20:42:00,
2013-08-08 15:47:00,77.4,62.1,29.99,NW,315,0.0,0.0,59,0.00,,,0.00,WUHU21636XXSP,2013-08-08 20:47:00,
2013-08-08 15:52:00,77.2,60.4,29.99,NW,315,0.0,0.0,56,0.00,,,0.00,WUHU21636XXSP,2013-08-08 20:52:00,
2013-08-08 15:57:00,77.2,61.5,29.99,NW,315,0.0,0.0,58,0.00,,,0.00,WUHU21636XXSP,2013-08-08 20:57:00,
2013-08-08 16:02:00,77.2,61.9,29.99,ENE,67,0.0,0.0,59,0.00,,,0.00,WUHU21636XXSP,2013-08-08 21:02:00,
2013-08-08 16:07:00,77.4,62.1,29.99,ESE,112,0.0,0.0,59,0.00,,,0.00,WUHU21636XXSP,2013-08-08 21:07:00,
2013-08-08 16:12:00,77.2,62.4,29.99,ESE,112,0.0,0.0,60,0.00,,,0.00,WUHU21636XXSP,2013-08-08 21:12:00,
2013-08-08 16:17:00,77.4,62.1,29.99,ESE,112,0.0,0.0,59,0.00,,,0.00,WUHU21636XXSP,2013-08-08 21:17:00,
2013-08-08 16:22:00,77.8,62.5,29.99,ESE,112,0.0,0.0,59,0.00,,,0.00,WUHU21636XXSP,2013-08-08 21:22:00,
2013-08-08 16:27:00,78.0,62.2,29.99,ESE,112,0.0,0.0,58,0.00,,,0.00,WUHU21636XXSP,2013-08-08 21:27:00,
2013-08-08 16:33:00,78.1,61.8,29.99,ESE,112,0.0,0.0,57,0.00,,,0.00,WUHU21636XXSP,2013-08-08 21:33:00,
2013-08-08 16:38:00,78.3,61.5,29.99,ESE,112,0.0,0.0,56,0.00,,,0.00,WUHU21636XXSP,2013-08-08 21:38:00,
2013-08-08 16:43:00,78.1,61.3,29.99,ESE,112,0.0,0.0,56,0.00,,,0.00,WUHU21636XXSP,2013-08-08 21:43:00,
2013-08-08 16:48:00,78.1,62.3,29.99,SSW,202,9.2,9.2,58,0.00,,,0.00,WUHU21636XXSP,2013-08-08 21:48:00,
2013-08-08 16:53:00,78.1,62.3,29.99,SSW,202,0.0,9.2,58,0.00,,,0.00,WUHU21636XXSP,2013-08-08 21:53:00,
2013-08-08 16:58:00,78.3,63.0,29.99,SSW,202,0.0,0.0,59,0.00,,,0.00,WUHU21636XXSP,2013-08-08 21:58:00,
2013-08-08 17:03:00,78.5,62.7,29.99,SSW,202,0.0,0.0,58,0.00,,,0.00,WUHU21636XXSP,2013-08-08 22:03:00,
2013-08-08 17:08:00,78.5,62.7,29.99,SSE,157,0.0,0.0,58,0.00,,,0.00,WUHU21636XXSP,2013-08-08 22:08:00,
2013-08-08 17:13:00,78.8,62.9,29.99,SSE,157,0.0,0.0,58,0.00,,,0.00,WUHU21636XXSP,2013-08-08 22:13:00,
2013-08-08 17:19:00,78.5,61.2,29.99,SSE,157,0.0,0.0,55,0.00,,,0.00,WUHU21636XXSP,2013-08-08 22:19:00,
2013-08-08 17:24:00,78.5,62.2,29.99,East,90,0.0,0.0,57,0.00,,,0.00,WUHU21636XXSP,2013-08-08 22:24:00,
2013-08-08 17:29:00,78.5,62.2,29.99,ESE,112,5.8,5.8,57,0.00,,,0.00,WUHU21636XXSP,2013-08-08 22:29:00,
2013-08-08 17:34:00,78.8,61.9,30.00,SE,135,0.0,5.8,56,0.00,,,0.00,WUHU21636XXSP,2013-08-08 22:34:00,
2013-08-08 17:39:00,78.8,62.4,30.00,SE,135,0.0,5.8,57,0.00,,,0.00,WUHU21636XXSP,2013-08-08 22:39:00,
2013-08-08 17:44:00,78.8,62.4,30.00,SE,135,0.0,0.0,57,0.00,,,0.00,WUHU21636XXSP,2013-08-08 22:44:00,
2013-08-08 17:50:00,78.5,62.7,29.99,SE,135,0.0,0.0,58,0.00,,,0.00,WUHU21636XXSP,2013-08-08 22:50:00,
2013-08-08 17:55:00,78.3,62.5,30.00,SSE,157,0.0,0.0,58,0.00,,,0.00,WUHU21636XXSP,2013-08-08 22:55:00,
2013-08-08 18:00:00,78.0,62.2,30.00,SSE,157,0.0,0.0,58,0.00,,,0.00,WUHU21636XXSP,2013-08-08 23:00:00,
2013-08-08 18:05:00,76.9,61.7,30.00,SSE,157,0.0,0.0,59,0.00,,,0.00,WUHU21636XXSP,2013-08-08 23:05:00,
2013-08-08 18:11:00,76.7,61.9,29.99,SSE,157,0.0,0.0,60,0.00,,,0.00,WUHU21636XXSP,2013-08-08 23:11:00,
2013-08-08 18:16:00,76.4,62.2,29.99,SE,135,0.0,0.0,61,0.00,,,0.00,WUHU21636XXSP,2013-08-08 23:16:00,
2013-08-08 18:21:00,76.1,61.9,29.99,SSE,157,0.0,0.0,61,0.00,,,0.00,WUHU21636XXSP,2013-08-08 23:21:00,
2013-08-08 18:26:00,75.9,61.7,29.99,SSE,157,0.0,0.0,61,0.00,,,0.00,WUHU21636XXSP,2013-08-08 23:26:00,
2013-08-08 18:31:00,75.5,61.8,29.99,SSE,157,0.0,0.0,62,0.00,,,0.00,WUHU21636XXSP,2013-08-08 23:31:00,
2013-08-08 18:36:00,75.3,61.6,29.99,SE,135,0.0,0.0,62,0.00,,,0.00,WUHU21636XXSP,2013-08-08 23:36:00,
2013-08-08 18:41:00,75.0,61.7,30.00,SSE,157,0.0,0.0,63,0.00,,,0.00,WUHU21636XXSP,2013-08-08 23:41:00,
2013-08-08 18:46:00,74.6,61.8,30.00,SSE,157,0.0,0.0,64,0.00,,,0.00,WUHU21636XXSP,2013-08-08 23:46:00,
2013-08-08 18:51:00,74.2,61.5,30.00,SSE,157,0.0,0.0,64,0.00,,,0.00,WUHU21636XXSP,2013-08-08 23:51:00,
2013-08-08 18:56:00,74.0,61.3,30.00,SSE,157,0.0,0.0,64,0.00,,,0.00,WUHU21636XXSP,2013-08-08 23:56:00,
2013-08-08 19:01:00,74.0,61.7,29.99,SSE,157,0.0,0.0,65,0.00,,,0.00,WUHU21636XXSP,2013-08-09 00:01:00,
2013-08-08 19:06:00,73.6,61.3,29.99,SSE,157,0.0,0.0,65,0.00,,,0.00,WUHU21636XXSP,2013-08-09 00:06:00,
2013-08-08 19:11:00,73.6,61.3,29.99,SSE,157,0.0,0.0,65,0.00,,,0.00,WUHU21636XXSP,2013-08-09 00:11:00,
2013-08-08 19:16:00,73.4,61.6,29.99,SSE,157,0.0,0.0,66,0.00,,,0.00,WUHU21636XXSP,2013-08-09 00:16:00,
2013-08-08 19:21:00,73.4,61.6,29.99,SSE,157,0.0,0.0,66,0.00,,,0.00,WUHU21636XXSP,2013-08-09 00:21:00,
2013-08-08 19:27:00,73.4,62.0,29.99,SSE,157,0.0,0.0,67,0.00,,,0.00,WUHU21636XXSP,2013-08-09 00:27:00,
2013-08-08 19:32:00,72.7,61.3,30.00,SSE,157,0.0,0.0,67,0.00,,,0.00,WUHU21636XXSP,2013-08-09 00:32:00,
2013-08-08 19:37:00,72.4,61.1,29.99,SSE,157,0.0,0.0,67,0.00,,,0.00,WUHU21636XXSP,2013-08-09 00:37:00,
2013-08-08 19:42:00,72.3,61.0,29.99,SSE,157,0.0,0.0,67,0.00,,,0.00,WUHU21636XXSP,2013-08-09 00:42:00,
2013-08-08 19:47:00,71.7,60.8,29.99,SSE,157,0.0,0.0,68,0.00,,,0.00,WUHU21636XXSP,2013-08-09 00:47:00,
2013-08-08 19:52:00,71.5,61.0,29.99,SSE,157,0.0,0.0,69,0.00,,,0.00,WUHU21636XXSP,2013-08-09 00:52:00,
2013-08-08 19:57:00,71.0,60.5,29.99,SSE,157,0.0,0.0,69,0.00,,,0.00,WUHU21636XXSP,2013-08-09 00:57:00,
2013-08-08 20:02:00,70.8,60.3,29.99,SSE,157,0.0,0.0,69,0.00,,,0.00,WUHU21636XXSP,2013-08-09 01:02:00,
2013-08-08 20:08:00,70.6,60.1,29.99,SSE,157,0.0,0.0,69,0.00,,,0.00,WUHU21636XXSP,2013-08-09 01:08:00,
2013-08-08 20:13:00,70.2,60.2,30.00,SSE,157,0.0,0.0,70,0.00,,,0.00,WUHU21636XXSP,2013-08-09 01:13:00,
2013-08-08 20:18:00,69.8,59.8,30.00,SSE,157,0.0,0.0,70,0.00,,,0.00,WUHU21636XXSP,2013-08-09 01:18:00,
2013-08-08 20:23:00,69.6,59.2,29.99,SSE,157,0.0,0.0,69,0.00,,,0.00,WUHU21636XXSP,2013-08-09 01:23:00,
2013-08-08 20:28:00,69.5,59.5,29.99,SSE,157,0.0,0.0,70,0.00,,,0.00,WUHU21636XXSP,2013-08-09 01:28:00,
2013-08-08 20:33:00,69.1,59.5,30.00,SSE,157,0.0,0.0,71,0.00,,,0.00,WUHU21636XXSP,2013-08-09 01:33:00,
2013-08-08 20:38:00,68.9,59.3,29.99,SSE,157,0.0,0.0,71,0.00,,,0.00,WUHU21636XXSP,2013-08-09 01:38:00,
2013-08-08 20:43:00,68.4,58.7,29.99,SSE,157,0.0,0.0,71,0.00,,,0.00,WUHU21636XXSP,2013-08-09 01:43:00,
2013-08-08 20:48:00,67.9,58.7,29.99,SSE,157,0.0,0.0,72,0.00,,,0.00,WUHU21636XXSP,2013-08-09 01:48:00,
2013-08-08 20:53:00,67.7,58.5,30.00,SSE,157,0.0,0.0,72,0.00,,,0.00,WUHU21636XXSP,2013-08-09 01:53:00,
2013-08-08 20:59:00,67.4,58.2,30.00,SSE,157,0.0,0.0,72,0.00,,,0.00,WUHU21636XXSP,2013-08-09 01:59:00,
2013-08-08 21:04:00,67.2,58.0,29.99,SSE,157,0.0,0.0,72,0.00,,,0.00,WUHU21636XXSP,2013-08-09 02:04:00,
2013-08-08 21:09:00,67.0,58.2,30.00,SSE,157,0.0,0.0,73,0.00,,,0.00,WUHU21636XXSP,2013-08-09 02:09:00,
2013-08-08 21:14:00,66.7,57.9,30.00,SSE,157,0.0,0.0,73,0.00,,,0.00,WUHU21636XXSP,2013-08-09 02:14:00,
2013-08-08 21:19:00,66.5,57.7,30.00,SSE,157,0.0,0.0,73,0.00,,,0.00,WUHU21636XXSP,2013-08-09 02:19:00,
2013-08-08 21:24:00,66.0,57.3,30.00,SSE,157,0.0,0.0,73,0.00,,,0.00,WUHU21636XXSP,2013-08-09 02:24:00,
2013-08-08 21:29:00,65.8,57.1,29.99,SSE,157,0.0,0.0,73,0.00,,,0.00,WUHU21636XXSP,2013-08-09 02:29:00,
2013-08-08 21:35:00,65.5,57.1,29.99,SSE,157,0.0,0.0,74,0.00,,,0.00,WUHU21636XXSP,2013-08-09 02:35:00,
2013-08-08 21:40:00,65.3,56.9,29.99,SSE,157,0.0,0.0,74,0.00,,,0.00,WUHU21636XXSP,2013-08-09 02:40:00,
2013-08-08 21:45:00,65.1,56.7,30.00,SSE,157,0.0,0.0,74,0.00,,,0.00,WUHU21636XXSP,2013-08-09 02:45:00,
2013-08-08 21:50:00,64.9,56.9,30.00,SSE,157,0.0,0.0,75,0.00,,,0.00,WUHU21636XXSP,2013-08-09 02:50:00,
2013-08-08 21:55:00,64.6,56.6,29.99,SSE,157,0.0,0.0,75,0.00,,,0.00,WUHU21636XXSP,2013-08-09 02:55:00,
2013-08-08 22:00:00,64.4,56.7,29.99,SSE,157,0.0,0.0,76,0.00,,,0.00,WUHU21636XXSP,2013-08-09 03:00:00,
2013-08-08 22:06:00,64.2,56.9,30.00,SSE,157,0.0,0.0,77,0.00,,,0.00,WUHU21636XXSP,2013-08-09 03:06:00,
2013-08-08 22:11:00,63.9,56.7,29.99,SSE,157,0.0,0.0,77,0.00,,,0.00,WUHU21636XXSP,2013-08-09 03:11:00,
2013-08-08 22:16:00,63.9,56.7,29.99,SSE,157,0.0,0.0,77,0.00,,,0.00,WUHU21636XXSP,2013-08-09 03:16:00,
2013-08-08 22:21:00,63.8,56.6,29.99,SSE,157,0.0,0.0,77,0.00,,,0.00,WUHU21636XXSP,2013-08-09 03:21:00,
2013-08-08 22:26:00,63.6,56.4,29.99,SSE,157,0.0,0.0,77,0.00,,,0.00,WUHU21636XXSP,2013-08-09 03:26:00,
2013-08-08 22:31:00,63.6,56.4,29.99,SSE,157,0.0,0.0,77,0.00,,,0.00,WUHU21636XXSP,2013-08-09 03:31:00,
2013-08-08 22:36:00,63.6,56.4,29.99,SSE,157,0.0,0.0,77,0.00,,,0.00,WUHU21636XXSP,2013-08-09 03:36:00,
2013-08-08 22:42:00,63.4,56.2,29.99,SSE,157,0.0,0.0,77,0.00,,,0.00,WUHU21636XXSP,2013-08-09 03:42:00,
2013-08-08 22:47:00,63.2,56.3,29.99,SSE,157,0.0,0.0,78,0.00,,,0.00,WUHU21636XXSP,2013-08-09 03:47:00,
2013-08-08 22:52:00,63.2,56.3,29.99,SSE,157,0.0,0.0,78,0.00,,,0.00,WUHU21636XXSP,2013-08-09 03:52:00,
2013-08-08 22:57:00,63.0,56.1,29.99,SSE,157,0.0,0.0,78,0.00,,,0.00,WUHU21636XXSP,2013-08-09 03:57:00,
2013-08-08 23:01:00,63.0,56.1,29.99,SSE,157,0.0,0.0,78,0.00,,,0.00,WUHU21636XXSP,2013-08-09 04:01:00,
2013-08-08 23:06:00,63.0,56.1,29.99,SSE,157,0.0,0.0,78,0.00,,,0.00,WUHU21636XXSP,2013-08-09 04:06:00,
2013-08-08 23:11:00,63.0,56.1,29.99,SSE,157,0.0,0.0,78,0.00,,,0.00,WUHU21636XXSP,2013-08-09 04:11:00,
2013-08-08 23:16:00,62.9,56.0,29.98,SSE,157,0.0,0.0,78,0.00,,,0.00,WUHU21636XXSP,2013-08-09 04:16:00,
2013-08-08 23:21:00,62.7,55.8,29.99,SSE,157,0.0,0.0,78,0.00,,,0.00,WUHU21636XXSP,2013-08-09 04:21:00,
2013-08-08 23:26:00,62.7,55.8,29.99,SSE,157,0.0,0.0,78,0.00,,,0.00,WUHU21636XXSP,2013-08-09 04:26:00,
2013-08-08 23:31:00,62.9,56.4,29.98,SSE,157,0.0,0.0,79,0.00,,,0.00,WUHU21636XXSP,2013-08-09 04:31:00,
2013-08-08 23:36:00,62.9,56.4,29.98,SSE,157,0.0,0.0,79,0.00,,,0.00,WUHU21636XXSP,2013-08-09 04:36:00,
2013-08-08 23:41:00,62.7,56.2,29.98,SSE,157,0.0,0.0,79,0.00,,,0.00,WUHU21636XXSP,2013-08-09 04:41:00,
2013-08-08 23:46:00,62.7,56.2,29.98,SSE,157,0.0,0.0,79,0.00,,,0.00,WUHU21636XXSP,2013-08-09 04:46:00,
2013-08-08 23:51:00,62.5,55.9,29.98,SSE,157,0.0,0.0,79,0.00,,,0.00,WUHU21636XXSP,2013-08-09 04:51:00,
2013-08-08 23:56:00,62.3,55.7,29.98,SSE,157,0.0,0.0,79,0.00,,,0.00,WUHU21636XXSP,2013-08-09 04:56:00,